Content
SEND FEEDBACK

Daily
Averages
Monthly
Summary
United States of America

PICKLEVILLE, UTAH


Home > North America > United States > Utah
Elevation: 6276 feet     Latitude: 41 49N     Longitude: 111 19W

WEATHER
 
SELECT A DAY
Number of Records: 168,234;   Date Range: 1/5/95 - 7/7/14
 
SHARE

PRINT THIS DATA

[ ← Previous Day ]
WEATHER ALMANAC - JANUARY 31, 2013
[ Next Day → ]
[ °C ]   °F
Weather ElementAverageHighLow
Temperature33.2 °F36 °F (1:51 pm)30.9 °F (4:51 am)
Dewpoint28.6 °F30 °F (12:51 pm)25 °F (4:51 am)
Humidity83.5 %92 % (7:51 pm)76 % (1:51 pm)
Barometer30.33 in30.37 in (9:51 am)30.29 in (1:51 am)
Wind Speed2.7 mph8.1 mph (1:51 pm)
Weather ElementAverage
Visibility9.2 mi
Wind DirectionENE (80.4 °)

Weather ElementTotal
Precipitation---
Heating Degree Days31.6 (Base 65)
Averaged from 23 records on January 31, 2013
WEATHER CONDITIONS BREAKOUT
WIND DIRECTION BREAKOUT
WEATHER BY HOUR - JANUARY 31, 2013
[ °C ]   °F
Local TimeTemperatureDewpointHumidityBarometerVisibilityWind DirectionWind SpeedGust SpeedPrecipitationEventsConditions
1:51 AM33.1 °F28.9 °F85 %30.29 in10.0 miEast (100°)3.5 mphOvercast
2:51 AM34.0 °F28.9 °F82 %30.30 in10.0 miSW (220°)3.5 mphOvercast
3:51 AM32.0 °F27.0 °F82 %30.30 in10.0 miESE (110°)3.5 mphMostly Cloudy
4:51 AM30.9 °F25.0 °F79 %30.32 in10.0 miEast (100°)3.5 mphOvercast
5:51 AM32.0 °F27.0 °F82 %30.32 in10.0 miCalmOvercast
6:51 AM32.0 °F27.0 °F82 %30.33 in10.0 miCalmOvercast
7:51 AM32.0 °F26.1 °F79 %30.35 in10.0 miCalmOvercast
8:51 AM30.9 °F27.0 °F85 %30.36 in10.0 miCalmOvercast
9:51 AM32.0 °F28.0 °F85 %30.37 in10.0 miWSW (250°)3.5 mphOvercast
10:51 AM34.0 °F28.9 °F82 %30.37 in10.0 miEast (90°)3.5 mphOvercast
11:51 AM34.0 °F28.9 °F82 %30.36 in10.0 miCalmOvercast
12:51 PM35.1 °F30.0 °F82 %30.34 in10.0 miNorth (10°)3.5 mphOvercast
1:51 PM36.0 °F28.9 °F76 %30.32 in10.0 miNorth (360°)8.1 mphOvercast
2:51 PM36.0 °F30.0 °F79 %30.32 in9.0 miNorth (10°)6.9 mphOvercast
3:51 PM35.1 °F28.9 °F78 %30.33 in9.0 miNorth (10°)6.9 mphOvercast
4:51 PM34.0 °F28.9 °F82 %30.32 in8.0 miNE (40°)3.5 mphOvercast
5:51 PM34.0 °F28.9 °F82 %30.33 in9.0 miNorth (350°)4.6 mphOvercast
6:51 PM34.0 °F30.0 °F85 %30.32 in9.0 miNE (50°)3.5 mphOvercast
7:51 PM32.0 °F30.0 °F92 %30.33 in7.0 miCalmOvercast
8:51 PM33.1 °F30.0 °F89 %30.33 in8.0 miCalmOvercast
9:51 PM33.1 °F30.0 °F89 %30.32 in8.0 miCalmOvercast
10:51 PM33.1 °F30.0 °F89 %30.30 in8.0 miCalmOvercast
11:51 PM32.0 °F30.0 °F92 %30.31 in6.0 miSSE (150°)4.6 mphOvercast
Hourly data recorded from KLGU, located miles away from Pickleville, Utah







STORIES FROM OUR PARTNERS